STARLINK-11632 [DTC] (63108 NORAD) Tracking and Keplerian Element Data

This shows tracking and keplerian element data for the satellite.

Feedback or suggestion? Click here.




ElementValue
Catalog63108
NameSTARLINK-11632 [DTC]
Epoch Orbit4709
Epoch Day354.0819937
Epoch Year2025
RAAN356.8381
Inclination43.0005
Eccentricity0.0002799
Argument of Perigee282.2908
Mean Anonmoly77.7647
Mean Motion15.70858646
Decay Rate0.00162474
L11 63108U 25039E 25354.08199370 .00162474 00000+0 12440-2 0 9999
L22 63108 43.0005 356.8381 0002799 282.2908 77.7647 15.70858646 47092



Live tracking and technical data element details for STARLINK-11632 [DTC] (NORAD 63108). STARLINK-11632 [DTC] can be tracked NOW for your location showing map with azimuth and elevation plus other details from your city location.







IsCatalogInMostPopularTable: catalog: 63108, numindb: 2
Update: records affected: 1



GetName: 63108 STARLINK-11632 [DTC]

Hit Count: updated at: Mon, 09 Feb 2026 08:54:37 GMT